Date String (YYYY-MM-DD hh:mm:ss) UTC,Instrument flags,Ambient pressure (hPa),Sample flow (lpm),Bypass flow (lpm),Sample temperature (°C),Ambient temperature (°C),ASC tube jacket temperature (°C),LED temperature (°C),Box temperature (°C),Sample RH (%),Span deviation,Mass concentration (μg/m³),Mass concentration (μg/m³),Mass concentration (μg/m³)
DateTimeUTC,F1_M11,P_M11,Q1_M11,Q2_M11,T1_M11,T2_M11,T3_M11,T4_M11,T5_M11,U1_M11,ZSPAN_M11,X0_M11,X2_M11,X1_M11
2022-06-01 03:00:00,,0831.9,5.00,0.00,27.9,26.8,00.0,36.9,29.8,21.4,0000.0,0002.33,0001.47,0001.14
2022-06-01 03:01:00,,0832.0,4.99,0.00,27.9,26.8,00.0,36.9,29.8,21.4,0000.0,0002.37,0001.48,0001.15
2022-06-01 03:02:00,,0832.0,5.00,0.00,27.9,26.8,00.0,36.9,29.8,21.5,0000.0,0002.49,0001.52,0001.18
2022-06-01 03:03:00,,0832.1,4.99,0.00,27.9,26.8,00.0,36.9,29.8,21.5,0000.0,0002.53,0001.54,0001.19
2022-06-01 03:04:00,,0832.1,5.01,0.00,27.9,26.8,00.0,36.9,29.8,21.5,0000.0,0002.56,0001.58,0001.21
2022-06-01 03:05:00,,0832.0,5.00,0.00,27.9,26.8,00.0,36.9,29.8,21.5,0000.0,0002.38,0001.56,0001.23
2022-06-01 03:06:00,,0831.9,5.01,0.00,27.9,26.8,00.0,36.9,29.8,21.5,0000.0,0002.43,0001.59,0001.25
2022-06-01 03:07:00,,0831.9,5.00,0.00,27.9,26.8,00.0,36.9,29.8,21.5,0000.0,0002.39,0001.58,0001.25
2022-06-01 03:08:00,,0832.0,4.99,0.00,27.9,26.8,00.0,36.9,29.8,21.4,0000.0,0002.41,0001.60,0001.27
2022-06-01 03:09:00,,0832.1,4.99,0.00,27.9,26.8,00.0,36.9,29.8,21.4,0000.0,0002.42,0001.61,0001.29
2022-06-01 03:10:00,,0832.1,5.01,0.00,27.9,26.8,00.0,36.9,29.8,21.4,0000.0,0002.41,0001.62,0001.31
2022-06-01 03:11:00,,0832.1,5.00,0.00,27.9,26.8,00.0,36.8,29.8,21.4,0000.0,0002.54,0001.64,0001.33
2022-06-01 03:12:00,,0832.1,5.00,0.00,27.9,26.8,00.0,36.9,29.8,21.4,0000.0,0002.62,0001.67,0001.35
2022-06-01 03:13:00,,0832.1,5.01,0.00,27.9,26.8,00.0,36.8,29.8,21.4,0000.0,0002.59,0001.68,0001.36
2022-06-01 03:14:00,,0832.2,4.99,0.00,27.9,26.8,00.0,36.8,29.8,21.4,0000.0,0002.55,0001.69,0001.38
2022-06-01 03:15:00,,0832.1,5.00,0.00,27.9,26.8,00.0,36.8,29.8,21.4,0000.0,0002.89,0001.70,0001.39
2022-06-01 03:16:00,,0832.1,5.02,0.00,27.9,26.8,00.0,36.8,29.8,21.7,0000.0,0003.36,0001.76,0001.41
2022-06-01 03:17:00,,0832.2,5.00,0.00,27.9,26.8,00.0,36.8,29.7,22.8,0000.0,0003.39,0001.79,0001.42
2022-06-01 03:18:00,,0832.3,5.00,0.00,27.9,26.7,00.0,36.8,29.7,22.3,0000.0,0003.54,0001.83,0001.44
2022-06-01 03:19:00,,0832.3,4.99,0.00,27.9,26.7,00.0,36.8,29.7,21.6,0000.0,0003.62,0001.85,0001.42
2022-06-01 03:20:00,,0832.4,5.00,0.00,27.9,26.7,00.0,36.8,29.8,21.5,0000.0,0003.50,0001.81,0001.41
2022-06-01 03:21:00,,0832.4,5.01,0.00,27.9,26.7,00.0,36.8,29.8,21.5,0000.0,0003.45,0001.79,0001.40
2022-06-01 03:22:00,,0832.3,5.01,0.00,27.9,26.7,00.0,36.8,29.8,21.4,0000.0,0003.29,0001.75,0001.39
2022-06-01 03:23:00,,0832.3,5.00,0.00,27.9,26.7,00.0,36.8,29.7,21.4,0000.0,0003.27,0001.75,0001.38
2022-06-01 03:24:00,,0832.3,4.99,0.00,27.9,26.7,00.0,36.8,29.7,21.3,0000.0,0003.31,0001.75,0001.37
2022-06-01 03:25:00,,0832.4,5.01,0.00,27.9,26.7,00.0,36.8,29.7,21.2,0000.0,0003.47,0001.76,0001.36
2022-06-01 03:26:00,,0832.4,5.00,0.00,27.8,26.7,00.0,36.8,29.7,21.2,0000.0,0003.29,0001.76,0001.35
2022-06-01 03:27:00,,0832.4,5.00,0.00,27.8,26.7,00.0,36.8,29.7,21.2,0000.0,0002.83,0001.72,0001.34
2022-06-01 03:28:00,,0832.3,5.01,0.00,27.8,26.7,00.0,36.8,29.7,21.2,0000.0,0002.79,0001.70,0001.34
2022-06-01 03:29:00,,0832.4,5.00,0.00,27.8,26.7,00.0,36.8,29.7,21.3,0000.0,0002.74,0001.66,0001.33
2022-06-01 03:30:00,,0832.4,5.00,0.00,27.8,26.7,00.0,36.8,29.7,21.4,0000.0,0002.60,0001.63,0001.35
2022-06-01 03:31:00,,0832.4,5.01,0.00,27.8,26.7,00.0,36.8,29.7,21.4,0000.0,0002.63,0001.64,0001.35
2022-06-01 03:32:00,,0832.3,5.00,0.00,27.8,26.7,00.0,36.8,29.7,21.3,0000.0,0002.70,0001.67,0001.35
2022-06-01 03:33:00,,0832.4,5.01,0.00,27.8,26.7,00.0,36.8,29.7,21.5,0000.0,0002.69,0001.66,0001.34
2022-06-01 03:34:00,,0832.4,5.00,0.00,27.8,26.7,00.0,36.8,29.7,21.5,0000.0,0002.56,0001.61,0001.33
2022-06-01 03:35:00,,0832.4,5.00,0.00,27.8,26.7,00.0,36.8,29.7,21.6,0000.0,0002.45,0001.57,0001.32
2022-06-01 03:36:00,,0832.4,5.00,0.00,27.8,26.7,00.0,36.8,29.7,21.5,0000.0,0002.24,0001.52,0001.30
2022-06-01 03:37:00,,0832.4,5.00,0.00,27.8,26.7,00.0,36.8,29.7,21.4,0000.0,0002.11,0001.48,0001.29
2022-06-01 03:38:00,,0832.4,5.00,0.00,27.8,26.7,00.0,36.8,29.7,21.3,0000.0,0002.03,0001.45,0001.28
2022-06-01 03:39:00,,0832.5,5.00,0.00,27.8,26.7,00.0,36.8,29.7,21.3,0000.0,0001.96,0001.42,0001.26
2022-06-01 03:40:00,,0832.5,5.00,0.00,27.8,26.7,00.0,36.8,29.7,21.3,0000.0,0001.85,0001.41,0001.25
2022-06-01 03:41:00,,0832.5,5.00,0.00,27.8,26.7,00.0,36.8,29.7,21.3,0000.0,0001.81,0001.38,0001.23
2022-06-01 03:42:00,,0832.5,4.99,0.00,27.8,26.7,00.0,36.8,29.7,21.1,0000.0,0001.79,0001.37,0001.22
2022-06-01 03:43:00,,0832.5,5.00,0.00,27.8,26.7,00.0,36.8,29.7,21.0,0000.0,0001.78,0001.35,0001.22
2022-06-01 03:44:00,,0832.5,5.00,0.00,27.8,26.7,00.0,36.8,29.7,21.0,0000.0,0001.79,0001.34,0001.21
2022-06-01 03:45:00,,0832.5,4.99,0.00,27.8,26.6,00.0,36.7,29.7,21.1,0000.0,0001.85,0001.37,0001.22
2022-06-01 03:46:00,,0832.6,5.01,0.00,27.8,26.6,00.0,36.7,29.7,21.1,0000.0,0001.85,0001.37,0001.22
2022-06-01 03:47:00,,0832.7,4.99,0.00,27.8,26.6,00.0,36.7,29.6,21.1,0000.0,0001.87,0001.38,0001.21
2022-06-01 03:48:00,,0832.7,5.01,0.00,27.8,26.6,00.0,36.7,29.6,21.2,0000.0,0001.96,0001.41,0001.21
2022-06-01 03:49:00,,0832.7,5.00,0.00,27.8,26.6,00.0,36.7,29.6,21.1,0000.0,0001.99,0001.42,0001.22
2022-06-01 03:50:00,,0832.8,5.00,0.00,27.8,26.6,00.0,36.7,29.6,21.0,0000.0,0002.18,0001.47,0001.22
2022-06-01 03:51:00,,0832.7,5.00,0.00,27.8,26.6,00.0,36.7,29.6,21.0,0000.0,0002.22,0001.48,0001.21
2022-06-01 03:52:00,,0832.8,4.99,0.00,27.8,26.6,00.0,36.7,29.6,21.0,0000.0,0002.29,0001.51,0001.21
2022-06-01 03:53:00,,0832.8,5.00,0.00,27.7,26.6,00.0,36.7,29.6,20.9,0000.0,0002.30,0001.50,0001.21
2022-06-01 03:54:00,,0832.8,5.00,0.00,27.7,26.6,00.0,36.7,29.6,20.9,0000.0,0002.28,0001.51,0001.20
2022-06-01 03:55:00,,0832.8,4.99,0.00,27.7,26.6,00.0,36.7,29.6,20.9,0000.0,0002.21,0001.49,0001.21
2022-06-01 03:56:00,,0832.7,5.01,0.00,27.7,26.6,00.0,36.7,29.6,20.9,0000.0,0002.16,0001.47,0001.19
2022-06-01 03:57:00,,0832.8,5.00,0.00,27.7,26.6,00.0,36.7,29.6,21.0,0000.0,0002.12,0001.46,0001.19
2022-06-01 03:58:00,,0832.9,5.01,0.00,27.7,26.6,00.0,36.7,29.6,21.1,0000.0,0002.11,0001.46,0001.20
2022-06-01 03:59:00,,0832.8,5.01,0.00,27.7,26.6,00.0,36.7,29.6,20.9,0000.0,0001.99,0001.42,0001.20
